Gwinner, ND

10:48 PM CDT on May 24, 2017 (GMT -0500)
Gwinner-melroe

Weather History for KGWR - December, 2011

Change the Weather History Date:

Wednesday, December 7, 2011

  Actual Average (KP67) Record (KP67)
Temperature  
Mean Temperature 29 °F -  
Max Temperature 35 °F 24 °F 25 °F (1996)
Min Temperature 23 °F 13 °F 18 °F (1996)
Degree Days  
Heating Degree Days 36    
Moisture  
Dew Point 21 °F    
Average Humidity 67    
Maximum Humidity 93    
Minimum Humidity 52    
Precipitation  
Precipitation 0.00 in - - ()
Sea Level Pressure  
Sea Level Pressure 30.01 in    
Wind  
Wind Speed 12 mph (WNW)    
Max Wind Speed 20 mph    
Max Gust Speed 26 mph    
Visibility 10 miles    
Events      
Averages and records for this station are not official NWS values.
T = Trace of Precipitation, MM = Missing Value Source: NWS Daily Summary

Daily Weather History Graph

Daily Weather History Graph

Search for Another Location

Airport or City:

Trip Planner

Search our weather history database for the weather conditions in past years. The results will help you decide how hot, cold, wet, or windy it might be!

Date:

Astronomy

Dec. 07, 2011 Rise Set
Actual Time 7:59 AM CST 4:44 PM CST
Civil Twilight 7:24 AM CST 5:19 PM CST
Nautical Twilight 6:46 AM CST 5:56 PM CST
Astronomical Twilight 6:10 AM CST 6:33 PM CST
Moon 2:49 PM CST (12/7) 5:11 AM CST (12/7)
Length of Visible Light 9h 54m
Length of Day
8h 45m
Waxing Gibbous, 92% of the Moon is Illuminated
Dec 7
Waxing Gibbous
Dec 10
Full
Dec 17
Last Quarter
Dec 24
New
Jan 1
First Quarter

Hourly Weather History & Observations

Time (CST) Temp. Windchill Dew Point Humidity Pressure Visibility Wind Dir Wind Speed Gust Speed Precip Events Conditions
12:15 AM 23.0 °F 11.7 °F 15.8 °F 74% 29.86 in 10.0 mi WSW 11.5 mph - 0.00 in   Clear
12:35 AM 23.0 °F 11.1 °F 15.8 °F 74% 29.86 in 10.0 mi WSW 12.7 mph - 0.00 in   Clear
12:55 AM 23.0 °F 11.1 °F 17.6 °F 80% 29.86 in 10.0 mi WSW 12.7 mph - 0.00 in   Clear
1:15 AM 23.0 °F 13.1 °F 17.6 °F 80% 29.87 in 10.0 mi SW 9.2 mph - 0.00 in   Clear
1:55 AM 23.0 °F 12.4 °F 17.6 °F 80% 29.89 in 10.0 mi WSW 10.4 mph - 0.00 in   Partly Cloudy
2:15 AM 23.0 °F 12.4 °F 19.4 °F 86% 29.89 in 10.0 mi West 10.4 mph - 0.00 in   Partly Cloudy
2:35 AM 26.6 °F 20.0 °F 21.2 °F 80% 29.91 in 10.0 mi West 5.8 mph - 0.00 in   Clear
2:55 AM 28.4 °F 19.7 °F 26.6 °F 93% 29.92 in 10.0 mi NNW 9.2 mph - 0.00 in   Partly Cloudy
3:15 AM 32.0 °F 24.2 °F 28.4 °F 87% 29.92 in 10.0 mi NNW 9.2 mph - 0.00 in   Partly Cloudy
3:35 AM 32.0 °F 24.8 °F 28.4 °F 87% 29.93 in 10.0 mi NNW 8.1 mph - 0.00 in   Clear
3:55 AM 32.0 °F 24.8 °F 28.4 °F 87% 29.94 in 10.0 mi North 8.1 mph - 0.00 in   Partly Cloudy
4:15 AM 32.0 °F 23.0 °F 28.4 °F 87% 29.95 in 10.0 mi North 11.5 mph - 0.00 in   Scattered Clouds
4:35 AM 32.0 °F 20.5 °F 23.0 °F 69% 29.96 in 10.0 mi North 18.4 mph 25.3 mph 0.00 in   Partly Cloudy
4:55 AM 32.0 °F 21.6 °F 23.0 °F 69% 29.98 in 10.0 mi North 15.0 mph 23.0 mph 0.00 in   Scattered Clouds
5:15 AM 32.0 °F 20.1 °F 21.2 °F 64% 29.99 in 10.0 mi North 19.6 mph - 0.00 in   Scattered Clouds
5:35 AM 32.0 °F 20.5 °F 19.4 °F 60% 30.00 in 10.0 mi North 18.4 mph 25.3 mph 0.00 in   Clear
5:55 AM 30.2 °F 18.9 °F 19.4 °F 64% 30.00 in 10.0 mi North 16.1 mph - 0.00 in   Partly Cloudy
6:15 AM 30.2 °F 19.8 °F 19.4 °F 64% 30.02 in 10.0 mi North 13.8 mph - 0.00 in   Partly Cloudy
6:35 AM 30.2 °F 20.2 °F 19.4 °F 64% 30.02 in 10.0 mi North 12.7 mph - 0.00 in   Clear
7:15 AM 28.4 °F 19.7 °F 17.6 °F 64% 30.02 in 10.0 mi North 9.2 mph - 0.00 in   Partly Cloudy
7:35 AM 26.6 °F 18.2 °F 17.6 °F 69% 30.04 in 10.0 mi North 8.1 mph - 0.00 in   Partly Cloudy
7:55 AM 26.6 °F 18.2 °F 17.6 °F 69% 30.04 in 10.0 mi North 8.1 mph - 0.00 in   Scattered Clouds
8:15 AM 26.6 °F 19.1 °F 17.6 °F 69% 30.04 in 10.0 mi North 6.9 mph - 0.00 in   Partly Cloudy
8:35 AM 26.6 °F 20.0 °F 19.4 °F 74% 30.05 in 10.0 mi NNW 5.8 mph - 0.00 in   Clear
8:55 AM 28.4 °F 21.2 °F 19.4 °F 69% 30.07 in 10.0 mi NNW 6.9 mph - 0.00 in   Clear
9:15 AM 28.4 °F 20.4 °F 19.4 °F 69% 30.07 in 10.0 mi NW 8.1 mph - 0.00 in   Partly Cloudy
9:35 AM 30.2 °F 22.6 °F 19.4 °F 64% 30.08 in 10.0 mi NW 8.1 mph - 0.00 in   Clear
9:55 AM 30.2 °F 21.3 °F 19.4 °F 64% 30.09 in 10.0 mi NW 10.4 mph - 0.00 in   Clear
10:15 AM 32.0 °F 24.8 °F 19.4 °F 60% 30.10 in 10.0 mi WNW 8.1 mph - 0.00 in   Clear
10:35 AM 32.0 °F 24.8 °F 19.4 °F 60% 30.11 in 10.0 mi WNW 8.1 mph - 0.00 in   Partly Cloudy
10:55 AM 32.0 °F 24.8 °F 19.4 °F 60% 30.11 in 10.0 mi West 8.1 mph - 0.00 in   Partly Cloudy
11:15 AM 32.0 °F 24.2 °F 19.4 °F 60% 30.10 in 10.0 mi West 9.2 mph - 0.00 in   Partly Cloudy
11:35 AM 32.0 °F 23.0 °F 19.4 °F 60% 30.09 in 10.0 mi WSW 11.5 mph - 0.00 in   Clear
11:55 AM 32.0 °F 23.0 °F 21.2 °F 64% 30.08 in 10.0 mi West 11.5 mph - 0.00 in   Clear
12:15 PM 33.8 °F 23.5 °F 19.4 °F 56% 30.08 in 10.0 mi WSW 16.1 mph 19.6 mph 0.00 in   Clear
12:35 PM - - - N/A% - - North - - 0.00 in   Unknown
1:15 PM - - - N/A% - - North - - 0.00 in   Unknown
1:35 PM 35.6 °F 25.2 °F 21.2 °F 56% 30.04 in 10.0 mi West 18.4 mph - 0.00 in   Unknown
1:55 PM 35.6 °F 25.2 °F 23.0 °F 60% 30.05 in 10.0 mi West 18.4 mph 24.2 mph 0.00 in   Scattered Clouds
2:15 PM 35.6 °F 25.2 °F 23.0 °F 60% 30.04 in 10.0 mi West 18.4 mph 25.3 mph 0.00 in   Mostly Cloudy
2:35 PM 35.6 °F 25.5 °F 23.0 °F 60% 30.04 in 10.0 mi West 17.3 mph 25.3 mph 0.00 in   Scattered Clouds
2:55 PM 35.6 °F 25.5 °F 19.4 °F 52% 30.04 in 10.0 mi West 17.3 mph - 0.00 in   Partly Cloudy
3:15 PM 33.8 °F 23.5 °F 19.4 °F 56% 30.04 in 10.0 mi West 16.1 mph 25.3 mph 0.00 in   Partly Cloudy
3:35 PM 33.8 °F 24.3 °F 21.2 °F 60% 30.04 in 10.0 mi West 13.8 mph 24.2 mph 0.00 in   Scattered Clouds
3:55 PM 33.8 °F 23.9 °F 21.2 °F 60% 30.05 in 10.0 mi West 15.0 mph - 0.00 in   Partly Cloudy
4:15 PM 33.8 °F 24.3 °F 21.2 °F 60% 30.05 in 10.0 mi West 13.8 mph 23.0 mph 0.00 in   Scattered Clouds
4:35 PM 33.8 °F 24.8 °F 21.2 °F 60% 30.06 in 10.0 mi West 12.7 mph 17.3 mph 0.00 in   Mostly Cloudy
4:55 PM 32.0 °F 23.0 °F 19.4 °F 60% 30.06 in 10.0 mi West 11.5 mph - 0.00 in   Overcast
5:15 PM 32.0 °F 23.6 °F 19.4 °F 60% 30.06 in 10.0 mi West 10.4 mph - 0.00 in   Mostly Cloudy
5:35 PM 32.0 °F 23.6 °F 21.2 °F 64% 30.07 in 10.0 mi West 10.4 mph - 0.00 in   Scattered Clouds
5:55 PM 32.0 °F 21.6 °F 21.2 °F 64% 30.07 in 10.0 mi WNW 15.0 mph 20.7 mph 0.00 in   Partly Cloudy
6:15 PM 32.0 °F 21.2 °F 17.6 °F 55% 30.07 in 10.0 mi WNW 16.1 mph 26.5 mph 0.00 in   Clear
6:35 PM 32.0 °F 21.6 °F 19.4 °F 60% 30.08 in 10.0 mi WNW 15.0 mph - 0.00 in   Clear
6:55 PM 30.2 °F 20.8 °F 19.4 °F 64% 30.08 in 10.0 mi WNW 11.5 mph - 0.00 in   Clear
7:15 PM 28.4 °F 19.1 °F 17.6 °F 64% 30.08 in 10.0 mi WNW 10.4 mph - 0.00 in   Clear
7:35 PM 28.4 °F 18.5 °F 17.6 °F 64% 30.09 in 10.0 mi WNW 11.5 mph - 0.00 in   Clear
7:55 PM 26.6 °F 16.8 °F 17.6 °F 69% 30.08 in 10.0 mi West 10.4 mph - 0.00 in   Partly Cloudy
8:15 PM 26.6 °F 16.2 °F 17.6 °F 69% 30.09 in 10.0 mi West 11.5 mph - 0.00 in   Clear
8:35 PM 23.0 °F 12.4 °F 15.8 °F 74% 30.09 in 10.0 mi West 10.4 mph - 0.00 in   Clear
8:55 PM 21.2 °F 11.7 °F 15.8 °F 80% 30.10 in 10.0 mi West 8.1 mph - 0.00 in   Clear
9:15 PM 23.0 °F 13.1 °F 17.6 °F 80% 30.11 in 10.0 mi West 9.2 mph - 0.00 in   Clear
9:35 PM 19.4 °F 10.4 °F 15.8 °F 86% 30.11 in 10.0 mi West 6.9 mph - 0.00 in   Clear
9:55 PM 17.6 °F 7.3 °F 14.0 °F 86% 30.12 in 10.0 mi West 8.1 mph - 0.00 in   Clear
10:15 PM 19.4 °F 9.5 °F 14.0 °F 80% 30.12 in 10.0 mi West 8.1 mph - 0.00 in   Clear
10:35 PM 17.6 °F 8.2 °F 14.0 °F 86% 30.11 in 10.0 mi West 6.9 mph - 0.00 in   Partly Cloudy
10:55 PM 17.6 °F 6.4 °F 12.2 °F 79% 30.11 in 10.0 mi West 9.2 mph - 0.00 in   Partly Cloudy
11:55 PM 19.4 °F 7.9 °F 14.0 °F 80% 30.11 in 10.0 mi West 10.4 mph - 0.00 in   Mostly Cloudy